Time,TemperatureF,DewpointF,PressureIn,WindDirection,WindDirectionDegrees,WindSpeedMPH,WindSpeedGustMPH,Humidity,HourlyPrecipIn,Conditions,Clouds,dailyrainin,SoftwareType,DateUTC
2013-02-03 00:00:00,42.8,24.4,29.50,WSW,255,4.1,5.6,48,0.00,,,0.00,WSDL version 426,2013-02-03 06:00:00,
2013-02-03 00:05:00,43.0,24.6,29.50,West,262,4.0,5.6,48,0.00,,,0.00,WSDL version 426,2013-02-03 06:05:00,
2013-02-03 00:10:00,43.1,24.8,29.50,WSW,258,4.9,6.0,48,0.00,,,0.00,WSDL version 426,2013-02-03 06:10:00,
2013-02-03 00:15:00,43.2,24.8,29.50,West,259,4.6,6.0,48,0.00,,,0.00,WSDL version 426,2013-02-03 06:15:00,
2013-02-03 00:20:00,43.0,24.7,29.50,West,265,3.9,6.3,48,0.00,,,0.00,WSDL version 426,2013-02-03 06:20:00,
2013-02-03 00:25:00,42.9,24.6,29.50,West,267,4.1,6.3,48,0.00,,,0.00,WSDL version 426,2013-02-03 06:25:00,
2013-02-03 00:30:00,42.9,24.5,29.50,West,270,5.1,6.0,48,0.00,,,0.00,WSDL version 426,2013-02-03 06:30:00,
2013-02-03 00:35:00,43.0,24.6,29.50,WSW,258,4.3,6.0,48,0.00,,,0.00,WSDL version 426,2013-02-03 06:35:00,
2013-02-03 00:40:00,43.0,24.2,29.50,West,260,4.5,6.0,47,0.00,,,0.00,WSDL version 426,2013-02-03 06:40:00,
2013-02-03 00:45:00,43.0,24.1,29.50,WSW,253,4.8,6.3,47,0.00,,,0.00,WSDL version 426,2013-02-03 06:45:00,
2013-02-03 00:50:00,42.8,24.3,29.50,West,264,3.8,6.5,48,0.00,,,0.00,WSDL version 426,2013-02-03 06:50:00,
2013-02-03 00:55:00,42.6,24.3,29.50,West,264,5.0,7.6,48,0.00,,,0.00,WSDL version 426,2013-02-03 06:55:00,
2013-02-03 01:00:00,42.5,24.2,29.50,WSW,255,3.6,7.6,48,0.00,,,0.00,WSDL version 426,2013-02-03 07:00:00,
2013-02-03 01:05:00,42.3,24.0,29.50,West,264,4.4,6.5,48,0.00,,,0.00,WSDL version 426,2013-02-03 07:05:00,
2013-02-03 01:10:00,42.3,24.0,29.50,WSW,255,4.0,5.8,48,0.00,,,0.00,WSDL version 426,2013-02-03 07:10:00,
2013-02-03 01:15:00,42.2,23.9,29.50,WNW,283,2.9,5.8,48,0.00,,,0.00,WSDL version 426,2013-02-03 07:15:00,
2013-02-03 01:20:00,41.7,23.5,29.50,West,275,2.8,4.3,48,0.00,,,0.00,WSDL version 426,2013-02-03 07:20:00,
2013-02-03 01:25:00,41.4,23.2,29.50,WSW,257,2.6,3.8,48,0.00,,,0.00,WSDL version 426,2013-02-03 07:25:00,
2013-02-03 01:30:00,41.2,23.0,29.50,WSW,245,3.7,4.5,48,0.00,,,0.00,WSDL version 426,2013-02-03 07:30:00,
2013-02-03 01:35:00,41.2,23.0,29.50,West,264,3.3,4.5,48,0.00,,,0.00,WSDL version 426,2013-02-03 07:35:00,
2013-02-03 01:40:00,41.0,22.8,29.50,West,270,2.5,4.0,48,0.00,,,0.00,WSDL version 426,2013-02-03 07:40:00,
2013-02-03 01:45:00,40.7,22.6,29.53,WSW,256,3.0,4.0,48,0.00,,,0.00,WSDL version 426,2013-02-03 07:45:00,
2013-02-03 01:50:00,40.6,22.9,29.53,WNW,290,3.1,4.0,49,0.00,,,0.00,WSDL version 426,2013-02-03 07:50:00,
2013-02-03 01:55:00,40.5,22.8,29.53,WNW,288,3.2,4.3,49,0.00,,,0.00,WSDL version 426,2013-02-03 07:55:00,
2013-02-03 02:00:00,40.5,22.8,29.50,West,262,3.1,4.7,49,0.00,,,0.00,WSDL version 426,2013-02-03 08:00:00,
2013-02-03 02:05:00,40.5,22.8,29.50,West,264,3.1,4.7,49,0.00,,,0.00,WSDL version 426,2013-02-03 08:05:00,
2013-02-03 02:10:00,40.3,22.6,29.50,West,273,2.6,3.8,49,0.00,,,0.00,WSDL version 426,2013-02-03 08:10:00,
2013-02-03 02:15:00,40.3,22.6,29.50,WNW,283,3.0,4.3,49,0.00,,,0.00,WSDL version 426,2013-02-03 08:15:00,
2013-02-03 02:20:00,40.3,22.7,29.50,WNW,284,3.9,5.4,49,0.00,,,0.00,WSDL version 426,2013-02-03 08:20:00,
2013-02-03 02:25:00,40.5,22.8,29.50,WNW,293,3.9,5.4,49,0.00,,,0.00,WSDL version 426,2013-02-03 08:25:00,
2013-02-03 02:30:00,40.5,22.8,29.50,West,267,3.4,4.7,49,0.00,,,0.00,WSDL version 426,2013-02-03 08:30:00,
2013-02-03 02:35:00,40.5,22.8,29.50,West,270,3.9,6.0,49,0.00,,,0.00,WSDL version 426,2013-02-03 08:35:00,
2013-02-03 02:40:00,40.3,22.6,29.50,West,263,4.0,6.0,49,0.00,,,0.00,WSDL version 426,2013-02-03 08:40:00,
2013-02-03 02:45:00,40.1,22.5,29.50,West,278,3.4,5.4,49,0.00,,,0.00,WSDL version 426,2013-02-03 08:45:00,
2013-02-03 02:50:00,40.0,22.3,29.50,WNW,287,3.5,4.9,49,0.00,,,0.00,WSDL version 426,2013-02-03 08:50:00,
2013-02-03 02:55:00,39.9,22.3,29.50,WNW,284,4.0,5.6,49,0.00,,,0.00,WSDL version 426,2013-02-03 08:55:00,
2013-02-03 03:00:00,39.9,22.3,29.50,West,278,3.7,5.6,49,0.00,,,0.00,WSDL version 426,2013-02-03 09:00:00,
2013-02-03 03:05:00,39.7,22.1,29.50,West,273,3.6,5.4,49,0.00,,,0.00,WSDL version 426,2013-02-03 09:05:00,
2013-02-03 03:10:00,39.5,21.9,29.50,West,273,2.8,5.4,49,0.00,,,0.00,WSDL version 426,2013-02-03 09:10:00,
2013-02-03 03:15:00,39.4,21.8,29.50,West,268,2.9,4.3,49,0.00,,,0.00,WSDL version 426,2013-02-03 09:15:00,
2013-02-03 03:20:00,39.3,21.8,29.50,West,263,1.5,4.3,49,0.00,,,0.00,WSDL version 426,2013-02-03 09:20:00,
2013-02-03 03:25:00,39.0,21.4,29.50,WNW,284,0.7,3.4,49,0.00,,,0.00,WSDL version 426,2013-02-03 09:25:00,
2013-02-03 03:30:00,38.7,21.2,29.50,WNW,293,2.7,3.6,49,0.00,,,0.00,WSDL version 426,2013-02-03 09:30:00,
2013-02-03 03:35:00,38.7,21.2,29.50,WNW,293,2.5,4.0,49,0.00,,,0.00,WSDL version 426,2013-02-03 09:35:00,
2013-02-03 03:40:00,38.7,21.2,29.50,WNW,295,3.1,4.0,49,0.00,,,0.00,WSDL version 426,2013-02-03 09:40:00,
2013-02-03 03:45:00,38.8,21.8,29.50,WNW,295,3.0,3.8,50,0.00,,,0.00,WSDL version 426,2013-02-03 09:45:00,
2013-02-03 03:50:00,39.2,21.8,29.50,WNW,285,3.8,5.8,49,0.00,,,0.00,WSDL version 426,2013-02-03 09:50:00,
2013-02-03 03:55:00,39.4,21.8,29.50,WNW,288,3.5,5.8,49,0.00,,,0.00,WSDL version 426,2013-02-03 09:55:00,
2013-02-03 04:00:00,39.5,22.0,29.50,WNW,284,3.5,5.8,49,0.00,,,0.00,WSDL version 426,2013-02-03 10:00:00,
2013-02-03 04:05:00,39.5,21.9,29.50,West,273,3.4,5.4,49,0.00,,,0.00,WSDL version 426,2013-02-03 10:05:00,
2013-02-03 04:10:00,39.3,21.7,29.50,West,278,2.9,4.3,49,0.00,,,0.00,WSDL version 426,2013-02-03 10:10:00,
2013-02-03 04:15:00,39.2,21.6,29.50,WNW,300,4.1,5.6,49,0.00,,,0.00,WSDL version 426,2013-02-03 10:15:00,
2013-02-03 04:20:00,39.0,21.7,29.50,WNW,290,4.3,5.6,50,0.00,,,0.00,WSDL version 426,2013-02-03 10:20:00,
2013-02-03 04:25:00,38.8,21.8,29.50,WNW,301,4.1,5.6,50,0.00,,,0.00,WSDL version 426,2013-02-03 10:25:00,
2013-02-03 04:30:00,39.0,21.9,29.50,WNW,285,4.3,5.8,50,0.00,,,0.00,WSDL version 426,2013-02-03 10:30:00,
2013-02-03 04:35:00,39.1,22.0,29.50,West,273,4.8,7.2,50,0.00,,,0.00,WSDL version 426,2013-02-03 10:35:00,
2013-02-03 04:40:00,39.1,22.0,29.50,West,275,4.6,7.2,50,0.00,,,0.00,WSDL version 426,2013-02-03 10:40:00,
2013-02-03 04:45:00,38.9,21.8,29.53,WNW,286,4.2,6.5,50,0.00,,,0.00,WSDL version 426,2013-02-03 10:45:00,
2013-02-03 04:50:00,38.6,21.6,29.53,WNW,283,4.3,6.3,50,0.00,,,0.00,WSDL version 426,2013-02-03 10:50:00,
2013-02-03 04:55:00,38.5,21.5,29.53,WNW,285,4.3,6.3,50,0.00,,,0.00,WSDL version 426,2013-02-03 10:55:00,
2013-02-03 05:00:00,38.5,21.5,29.53,WNW,287,5.6,7.6,50,0.00,,,0.00,WSDL version 426,2013-02-03 11:00:00,
2013-02-03 05:05:00,38.7,21.6,29.53,West,275,5.2,7.6,50,0.00,,,0.00,WSDL version 426,2013-02-03 11:05:00,
2013-02-03 05:10:00,38.7,21.6,29.53,WNW,289,5.7,7.2,50,0.00,,,0.00,WSDL version 426,2013-02-03 11:10:00,
2013-02-03 05:15:00,38.8,21.8,29.53,WNW,293,4.0,6.5,50,0.00,,,0.00,WSDL version 426,2013-02-03 11:15:00,
2013-02-03 05:20:00,38.8,21.6,29.53,WNW,287,3.4,6.5,50,0.00,,,0.00,WSDL version 426,2013-02-03 11:20:00,
2013-02-03 05:25:00,38.6,21.1,29.53,WNW,290,3.3,4.7,49,0.00,,,0.00,WSDL version 426,2013-02-03 11:25:00,
2013-02-03 05:30:00,38.4,21.2,29.53,WNW,301,3.7,6.3,50,0.00,,,0.00,WSDL version 426,2013-02-03 11:30:00,
2013-02-03 05:35:00,38.2,21.2,29.53,WNW,300,3.1,6.3,50,0.00,,,0.00,WSDL version 426,2013-02-03 11:35:00,
2013-02-03 05:40:00,38.1,21.1,29.53,WNW,290,3.7,6.3,50,0.00,,,0.00,WSDL version 426,2013-02-03 11:40:00,
2013-02-03 05:45:00,38.1,21.1,29.53,WNW,293,3.4,6.3,50,0.00,,,0.00,WSDL version 426,2013-02-03 11:45:00,
2013-02-03 05:50:00,37.9,20.9,29.53,WNW,295,2.9,4.3,50,0.00,,,0.00,WSDL version 426,2013-02-03 11:50:00,
2013-02-03 05:55:00,37.7,20.7,29.53,NW,312,2.8,4.0,50,0.00,,,0.00,WSDL version 426,2013-02-03 11:55:00,
2013-02-03 06:00:00,37.6,20.6,29.53,NW,315,2.0,4.0,50,0.00,,,0.00,WSDL version 426,2013-02-03 12:00:00,
2013-02-03 06:05:00,37.2,20.3,29.53,NW,315,2.1,3.8,50,0.00,,,0.00,WSDL version 426,2013-02-03 12:05:00,
2013-02-03 06:10:00,36.8,19.9,29.53,NW,315,1.6,2.7,50,0.00,,,0.00,WSDL version 426,2013-02-03 12:10:00,
2013-02-03 06:15:00,36.5,19.6,29.53,NW,315,1.5,2.7,50,0.00,,,0.00,WSDL version 426,2013-02-03 12:15:00,
2013-02-03 06:20:00,36.2,19.3,29.53,WNW,301,2.0,2.9,50,0.00,,,0.00,WSDL version 426,2013-02-03 12:20:00,
2013-02-03 06:25:00,35.9,19.1,29.53,NNW,338,1.3,2.9,50,0.00,,,0.00,WSDL version 426,2013-02-03 12:25:00,
2013-02-03 06:30:00,35.6,18.9,29.53,NNW,338,0.0,2.2,51,0.00,,,0.00,WSDL version 426,2013-02-03 12:30:00,
2013-02-03 06:35:00,35.0,18.7,29.53,WNW,300,0.7,2.2,51,0.00,,,0.00,WSDL version 426,2013-02-03 12:35:00,
2013-02-03 06:40:00,34.5,18.2,29.53,NNW,338,1.8,2.9,51,0.00,,,0.00,WSDL version 426,2013-02-03 12:40:00,
2013-02-03 06:45:00,34.2,18.1,29.53,NNW,338,2.7,4.0,52,0.00,,,0.00,WSDL version 426,2013-02-03 12:45:00,
2013-02-03 06:50:00,34.3,18.5,29.53,NNW,333,2.7,4.0,52,0.00,,,0.00,WSDL version 426,2013-02-03 12:50:00,
2013-02-03 06:55:00,34.9,19.1,29.53,NNW,338,3.5,5.4,52,0.00,,,0.00,WSDL version 426,2013-02-03 12:55:00,
2013-02-03 07:00:00,35.6,20.0,29.53,NNW,340,3.1,5.4,52,0.00,,,0.00,WSDL version 426,2013-02-03 13:00:00,
2013-02-03 07:05:00,36.2,20.3,29.53,NNW,338,2.3,4.3,52,0.00,,,0.00,WSDL version 426,2013-02-03 13:05:00,
2013-02-03 07:10:00,36.3,20.4,29.53,NNW,338,2.7,4.0,52,0.00,,,0.00,WSDL version 426,2013-02-03 13:10:00,
2013-02-03 07:15:00,36.2,20.1,29.56,NNW,329,1.8,3.6,51,0.00,,,0.00,WSDL version 426,2013-02-03 13:15:00,
2013-02-03 07:20:00,36.2,19.8,29.56,NW,323,2.1,2.9,51,0.00,,,0.00,WSDL version 426,2013-02-03 13:20:00,
2013-02-03 07:25:00,36.1,19.7,29.56,NW,315,0.0,2.9,51,0.00,,,0.00,WSDL version 426,2013-02-03 13:25:00,
2013-02-03 07:30:00,35.3,19.0,29.56,WNW,293,0.0,2.5,51,0.00,,,0.00,WSDL version 426,2013-02-03 13:30:00,
2013-02-03 07:35:00,34.8,18.6,29.56,WNW,293,0.0,1.1,51,0.00,,,0.00,WSDL version 426,2013-02-03 13:35:00,
2013-02-03 07:40:00,34.5,18.6,29.56,SSW,205,0.0,1.1,52,0.00,,,0.00,WSDL version 426,2013-02-03 13:40:00,
2013-02-03 07:45:00,34.3,18.5,29.56,SSW,203,0.0,0.0,52,0.00,,,0.00,WSDL version 426,2013-02-03 13:45:00,
2013-02-03 07:50:00,34.1,18.3,29.56,SSW,203,0.0,0.0,52,0.00,,,0.00,WSDL version 426,2013-02-03 13:50:00,
2013-02-03 07:55:00,33.9,18.6,29.56,SE,132,0.0,0.0,53,0.00,,,0.00,WSDL version 426,2013-02-03 13:55:00,
2013-02-03 08:00:00,33.8,18.5,29.56,West,270,0.0,0.0,53,0.00,,,0.00,WSDL version 426,2013-02-03 14:00:00,
2013-02-03 08:05:00,34.1,18.8,29.56,West,270,0.0,0.0,53,0.00,,,0.00,WSDL version 426,2013-02-03 14:05:00,
2013-02-03 08:10:00,34.7,19.7,29.56,West,262,0.0,0.0,54,0.00,,,0.00,WSDL version 426,2013-02-03 14:10:00,
2013-02-03 08:15:00,35.3,20.3,29.56,East,84,0.0,0.9,53,0.00,,,0.00,WSDL version 426,2013-02-03 14:15:00,
2013-02-03 08:20:00,35.8,20.8,29.56,NNE,23,0.0,0.9,54,0.00,,,0.00,WSDL version 426,2013-02-03 14:20:00,
2013-02-03 08:25:00,36.3,21.2,29.56,NNW,343,3.0,4.0,54,0.00,,,0.00,WSDL version 426,2013-02-03 14:25:00,
2013-02-03 08:30:00,37.5,22.4,29.56,North,10,4.1,7.6,54,0.00,,,0.00,WSDL version 426,2013-02-03 14:30:00,
2013-02-03 08:35:00,39.0,23.2,29.56,North,360,4.0,7.6,52,0.00,,,0.00,WSDL version 426,2013-02-03 14:35:00,
2013-02-03 08:40:00,40.1,23.2,29.56,North,354,4.4,7.8,50,0.00,,,0.00,WSDL version 426,2013-02-03 14:40:00,
2013-02-03 08:45:00,41.2,23.5,29.56,NNE,13,3.3,7.8,49,0.00,,,0.00,WSDL version 426,2013-02-03 14:45:00,
2013-02-03 08:50:00,41.8,23.3,29.56,NNE,20,5.6,7.4,46,0.00,,,0.00,WSDL version 426,2013-02-03 14:50:00,
2013-02-03 08:55:00,42.5,23.4,29.56,North,355,4.6,7.6,46,0.00,,,0.00,WSDL version 426,2013-02-03 14:55:00,
2013-02-03 09:00:00,43.1,22.5,29.56,North,8,5.6,7.8,44,0.00,,,0.00,WSDL version 426,2013-02-03 15:00:00,
2013-02-03 09:05:00,43.6,22.1,29.56,North,8,7.4,11.4,42,0.00,,,0.00,WSDL version 426,2013-02-03 15:05:00,
2013-02-03 09:10:00,43.9,21.9,29.56,North,11,5.6,11.4,41,0.00,,,0.00,WSDL version 426,2013-02-03 15:10:00,
2013-02-03 09:15:00,44.4,22.0,29.56,NNE,25,6.4,10.1,40,0.00,,,0.00,WSDL version 426,2013-02-03 15:15:00,
2013-02-03 09:20:00,44.7,21.9,29.56,NNE,23,6.3,10.1,40,0.00,,,0.00,WSDL version 426,2013-02-03 15:20:00,
2013-02-03 09:25:00,45.1,21.7,29.56,NNE,31,6.8,9.8,39,0.00,,,0.00,WSDL version 426,2013-02-03 15:25:00,
2013-02-03 09:30:00,45.5,22.0,29.56,North,358,7.1,12.8,39,0.00,,,0.00,WSDL version 426,2013-02-03 15:30:00,
2013-02-03 09:35:00,45.9,22.3,29.56,NE,42,4.5,12.8,39,0.00,,,0.00,WSDL version 426,2013-02-03 15:35:00,
2013-02-03 09:40:00,46.2,22.2,29.56,NE,37,6.6,8.7,38,0.00,,,0.00,WSDL version 426,2013-02-03 15:40:00,
2013-02-03 09:45:00,46.6,22.1,29.56,NE,43,6.9,10.7,37,0.00,,,0.00,WSDL version 426,2013-02-03 15:45:00,
2013-02-03 09:50:00,46.9,22.1,29.56,NE,37,6.9,11.0,37,0.00,,,0.00,WSDL version 426,2013-02-03 15:50:00,
2013-02-03 09:55:00,47.2,22.3,29.56,NNE,14,5.3,11.0,37,0.00,,,0.00,WSDL version 426,2013-02-03 15:55:00,
2013-02-03 10:00:00,47.4,22.1,29.56,NNE,14,6.2,10.7,37,0.00,,,0.00,WSDL version 426,2013-02-03 16:00:00,
2013-02-03 10:05:00,47.9,22.0,29.56,NNE,17,5.9,10.7,35,0.00,,,0.00,WSDL version 426,2013-02-03 16:05:00,
2013-02-03 10:10:00,48.3,21.3,29.56,NNE,28,6.6,9.8,34,0.00,,,0.00,WSDL version 426,2013-02-03 16:10:00,
2013-02-03 10:15:00,48.7,20.8,29.56,North,10,4.5,9.8,32,0.00,,,0.00,WSDL version 426,2013-02-03 16:15:00,
2013-02-03 10:20:00,49.1,21.2,29.56,NE,53,5.1,7.4,33,0.00,,,0.00,WSDL version 426,2013-02-03 16:20:00,
2013-02-03 10:25:00,49.7,21.5,29.56,NE,37,3.9,7.4,32,0.00,,,0.00,WSDL version 426,2013-02-03 16:25:00,
2013-02-03 10:30:00,50.1,21.3,29.56,NE,35,4.6,7.4,32,0.00,,,0.00,WSDL version 426,2013-02-03 16:30:00,
2013-02-03 10:35:00,50.6,21.8,29.56,NNE,25,4.8,7.8,32,0.00,,,0.00,WSDL version 426,2013-02-03 16:35:00,
2013-02-03 10:40:00,51.0,21.8,29.56,ENE,68,4.1,7.8,31,0.00,,,0.00,WSDL version 426,2013-02-03 16:40:00,
2013-02-03 10:45:00,51.5,22.2,29.56,East,90,4.7,7.8,31,0.00,,,0.00,WSDL version 426,2013-02-03 16:45:00,
2013-02-03 10:50:00,51.8,21.7,29.56,NE,51,3.8,7.8,30,0.00,,,0.00,WSDL version 426,2013-02-03 16:50:00,
2013-02-03 10:55:00,52.3,21.4,29.56,ENE,70,3.5,7.8,29,0.00,,,0.00,WSDL version 426,2013-02-03 16:55:00,
2013-02-03 11:00:00,52.9,21.5,29.53,NE,51,6.3,8.5,29,0.00,,,0.00,WSDL version 426,2013-02-03 17:00:00,
2013-02-03 11:05:00,53.1,21.0,29.53,ENE,58,5.1,8.5,28,0.00,,,0.00,WSDL version 426,2013-02-03 17:05:00,
2013-02-03 11:10:00,53.6,21.1,29.53,NE,51,3.5,7.2,28,0.00,,,0.00,WSDL version 426,2013-02-03 17:10:00,
2013-02-03 11:15:00,54.2,21.5,29.53,NE,53,4.5,9.6,27,0.00,,,0.00,WSDL version 426,2013-02-03 17:15:00,
2013-02-03 11:20:00,54.5,20.3,29.53,ENE,78,4.7,9.6,26,0.00,,,0.00,WSDL version 426,2013-02-03 17:20:00,
2013-02-03 11:25:00,54.7,20.5,29.53,NNE,31,4.1,8.7,26,0.00,,,0.00,WSDL version 426,2013-02-03 17:25:00,
2013-02-03 11:30:00,55.0,20.8,29.53,NE,38,3.0,6.0,26,0.00,,,0.00,WSDL version 426,2013-02-03 17:30:00,
2013-02-03 11:35:00,55.6,20.3,29.53,NNE,28,3.2,6.3,25,-99.99,,,-99.99,WSDL version 426,2013-02-03 17:35:00,
2013-02-03 11:40:00,56.2,20.8,29.53,North,5,1.8,6.3,25,0.00,,,0.00,WSDL version 426,2013-02-03 17:40:00,
2013-02-03 11:45:00,56.4,21.0,29.53,NE,51,2.9,5.6,25,0.00,,,0.00,WSDL version 426,2013-02-03 17:45:00,
2013-02-03 11:50:00,56.6,21.2,29.53,ESE,120,1.8,5.6,25,0.00,,,0.00,WSDL version 426,2013-02-03 17:50:00,
2013-02-03 11:55:00,56.9,21.5,29.53,ESE,116,3.5,5.6,25,-99.99,,,-99.99,WSDL version 426,2013-02-03 17:55:00,
2013-02-03 12:00:00,57.1,22.0,29.50,East,96,4.9,7.4,26,-99.99,,,-99.99,WSDL version 426,2013-02-03 18:00:00,
2013-02-03 12:05:00,57.0,22.4,29.50,East,90,3.2,7.4,26,-99.99,,,-99.99,WSDL version 426,2013-02-03 18:05:00,
2013-02-03 12:10:00,57.2,22.0,29.50,ENE,76,3.6,6.5,25,0.00,,,0.00,WSDL version 426,2013-02-03 18:10:00,
2013-02-03 12:15:00,57.8,22.2,29.50,SE,133,3.6,8.5,25,0.00,,,0.00,WSDL version 426,2013-02-03 18:15:00,
2013-02-03 12:20:00,58.1,22.5,29.50,ESE,115,3.1,8.7,25,0.00,,,0.00,WSDL version 426,2013-02-03 18:20:00,
2013-02-03 12:25:00,58.1,22.5,29.50,East,90,6.9,12.3,25,0.00,,,0.00,WSDL version 426,2013-02-03 18:25:00,
2013-02-03 12:30:00,58.1,21.9,29.50,SE,133,3.9,12.3,25,0.00,,,0.00,WSDL version 426,2013-02-03 18:30:00,
2013-02-03 12:35:00,58.6,22.6,29.50,SE,129,5.9,8.9,25,0.00,,,0.00,WSDL version 426,2013-02-03 18:35:00,
2013-02-03 12:40:00,58.9,22.4,29.50,ESE,103,5.4,8.5,24,0.00,,,0.00,WSDL version 426,2013-02-03 18:40:00,
2013-02-03 12:45:00,58.9,21.3,29.47,SE,129,4.9,8.5,24,-99.99,,,-99.99,WSDL version 426,2013-02-03 18:45:00,
2013-02-03 12:50:00,59.4,22.6,29.47,SE,125,4.4,8.5,24,-99.99,,,-99.99,WSDL version 426,2013-02-03 18:50:00,
2013-02-03 12:55:00,59.7,21.8,29.47,ESE,118,6.5,9.8,22,0.00,,,0.00,WSDL version 426,2013-02-03 18:55:00,
2013-02-03 13:00:00,59.8,20.9,29.47,ESE,103,3.6,9.8,22,0.00,,,0.00,WSDL version 426,2013-02-03 19:00:00,
2013-02-03 13:05:00,59.7,20.8,29.47,ESE,105,8.0,11.0,22,0.00,,,0.00,WSDL version 426,2013-02-03 19:05:00,
2013-02-03 13:10:00,59.6,21.1,29.47,SE,132,6.0,11.0,23,0.00,,,0.00,WSDL version 426,2013-02-03 19:10:00,
2013-02-03 13:15:00,59.8,21.3,29.47,ESE,108,6.8,8.5,22,0.00,,,0.00,WSDL version 426,2013-02-03 19:15:00,
2013-02-03 13:20:00,59.9,19.2,29.47,West,281,2.8,8.7,22,0.00,,,0.00,WSDL version 426,2013-02-03 19:20:00,
2013-02-03 13:25:00,60.6,20.0,29.47,ESE,115,5.1,8.7,21,0.00,,,0.00,WSDL version 426,2013-02-03 19:25:00,
2013-02-03 13:30:00,61.6,20.7,29.47,East,96,4.6,8.1,21,0.00,,,0.00,WSDL version 426,2013-02-03 19:30:00,
2013-02-03 13:35:00,61.8,20.3,29.47,SE,138,4.3,9.8,19,0.00,,,0.00,WSDL version 426,2013-02-03 19:35:00,
2013-02-03 13:40:00,61.8,19.9,29.47,East,98,3.6,9.8,20,0.00,,,0.00,WSDL version 426,2013-02-03 19:40:00,
2013-02-03 13:45:00,61.6,19.0,29.44,ESE,110,5.6,12.8,19,0.00,,,0.00,WSDL version 426,2013-02-03 19:45:00,
2013-02-03 13:50:00,61.6,18.9,29.44,ESE,103,4.1,12.8,19,0.00,,,0.00,WSDL version 426,2013-02-03 19:50:00,
2013-02-03 13:55:00,61.8,19.1,29.44,ESE,103,6.6,10.7,19,0.00,,,0.00,WSDL version 426,2013-02-03 19:55:00,
2013-02-03 14:00:00,61.9,19.2,29.44,SE,125,7.5,10.7,19,0.00,,,0.00,WSDL version 426,2013-02-03 20:00:00,
2013-02-03 14:05:00,62.3,19.3,29.44,ESE,118,4.5,10.7,18,0.00,,,0.00,WSDL version 426,2013-02-03 20:05:00,
2013-02-03 14:10:00,62.8,18.7,29.44,SE,133,7.5,10.7,18,0.00,,,0.00,WSDL version 426,2013-02-03 20:10:00,
2013-02-03 14:15:00,62.9,18.8,29.41,SE,125,5.4,10.7,18,0.00,,,0.00,WSDL version 426,2013-02-03 20:15:00,
2013-02-03 14:20:00,63.1,17.1,29.41,SE,141,7.7,10.5,18,0.00,,,0.00,WSDL version 426,2013-02-03 20:20:00,
2013-02-03 14:25:00,63.1,17.6,29.41,SE,124,10.0,14.8,16,0.00,,,0.00,WSDL version 426,2013-02-03 20:25:00,
2013-02-03 14:30:00,62.7,15.9,29.41,ESE,108,7.7,14.8,16,0.00,,,0.00,WSDL version 426,2013-02-03 20:30:00,
2013-02-03 14:35:00,62.7,15.9,29.41,SE,138,7.9,12.5,16,0.00,,,0.00,WSDL version 426,2013-02-03 20:35:00,
2013-02-03 14:40:00,63.2,17.2,29.41,SE,124,6.7,11.0,17,0.00,,,0.00,WSDL version 426,2013-02-03 20:40:00,
2013-02-03 14:45:00,63.4,16.4,29.41,SE,125,7.9,12.3,16,0.00,,,0.00,WSDL version 426,2013-02-03 20:45:00,
2013-02-03 14:50:00,63.2,16.3,29.41,SE,127,6.8,12.3,16,0.00,,,0.00,WSDL version 426,2013-02-03 20:50:00,
2013-02-03 14:55:00,63.5,16.5,29.41,SE,135,7.5,13.2,16,0.00,,,0.00,WSDL version 426,2013-02-03 20:55:00,
2013-02-03 15:00:00,64.3,16.3,29.38,SE,125,6.4,13.2,15,0.00,,,0.00,WSDL version 426,2013-02-03 21:00:00,
2013-02-03 15:05:00,64.9,16.1,29.38,SSE,154,5.1,9.8,15,0.00,,,0.00,WSDL version 426,2013-02-03 21:05:00,
2013-02-03 15:10:00,65.5,16.6,29.38,SE,145,6.5,9.8,15,0.00,,,0.00,WSDL version 426,2013-02-03 21:10:00,
2013-02-03 15:15:00,65.5,16.7,29.38,SE,138,7.0,10.7,15,0.00,,,0.00,WSDL version 426,2013-02-03 21:15:00,
2013-02-03 15:20:00,65.7,16.8,29.38,SE,145,6.2,10.7,15,0.00,,,0.00,WSDL version 426,2013-02-03 21:20:00,
2013-02-03 15:25:00,65.8,16.9,29.38,SE,128,7.0,11.4,15,0.00,,,0.00,WSDL version 426,2013-02-03 21:25:00,
2013-02-03 15:30:00,65.7,16.8,29.38,ESE,116,6.7,11.9,15,0.00,,,0.00,WSDL version 426,2013-02-03 21:30:00,
2013-02-03 15:35:00,65.5,16.7,29.38,SE,133,5.7,11.9,15,0.00,,,0.00,WSDL version 426,2013-02-03 21:35:00,
2013-02-03 15:40:00,65.4,16.6,29.38,SE,130,6.9,10.1,15,0.00,,,0.00,WSDL version 426,2013-02-03 21:40:00,
2013-02-03 15:45:00,65.0,16.2,29.38,SE,128,7.7,10.3,15,0.00,,,0.00,WSDL version 426,2013-02-03 21:45:00,
2013-02-03 15:50:00,64.6,15.9,29.38,SSE,154,6.2,11.9,15,0.00,,,0.00,WSDL version 426,2013-02-03 21:50:00,
2013-02-03 15:55:00,64.4,15.8,29.38,SE,135,5.3,11.9,15,0.00,,,0.00,WSDL version 426,2013-02-03 21:55:00,
2013-02-03 16:00:00,64.2,16.6,29.35,SE,125,7.5,11.0,16,0.00,,,0.00,WSDL version 426,2013-02-03 22:00:00,
2013-02-03 16:05:00,63.4,16.5,29.35,ESE,116,6.2,11.0,16,0.00,,,0.00,WSDL version 426,2013-02-03 22:05:00,
2013-02-03 16:10:00,63.2,16.3,29.35,ESE,123,6.9,11.0,16,0.00,,,0.00,WSDL version 426,2013-02-03 22:10:00,
2013-02-03 16:15:00,62.6,15.8,29.35,SE,124,6.5,11.0,16,0.00,,,0.00,WSDL version 426,2013-02-03 22:15:00,
2013-02-03 16:20:00,61.8,15.1,29.35,SE,125,7.2,11.0,16,0.00,,,0.00,WSDL version 426,2013-02-03 22:20:00,
2013-02-03 16:25:00,61.4,14.8,29.35,SE,138,5.9,9.6,16,0.00,,,0.00,WSDL version 426,2013-02-03 22:25:00,
2013-02-03 16:30:00,61.3,16.1,29.35,ESE,113,6.6,10.7,19,0.00,,,0.00,WSDL version 426,2013-02-03 22:30:00,
2013-02-03 16:35:00,60.9,18.4,29.35,SE,127,5.3,10.7,19,0.00,,,0.00,WSDL version 426,2013-02-03 22:35:00,
2013-02-03 16:40:00,60.5,18.0,29.35,ESE,118,4.4,8.1,19,0.00,,,0.00,WSDL version 426,2013-02-03 22:40:00,
2013-02-03 16:45:00,60.3,17.9,29.35,SE,138,4.4,8.1,19,0.00,,,0.00,WSDL version 426,2013-02-03 22:45:00,
2013-02-03 16:50:00,60.1,17.8,29.35,SE,146,3.4,6.5,19,0.00,,,0.00,WSDL version 426,2013-02-03 22:50:00,
2013-02-03 16:55:00,59.7,17.4,29.35,SE,143,4.4,8.5,19,0.00,,,0.00,WSDL version 426,2013-02-03 22:55:00,
2013-02-03 17:00:00,59.2,17.0,29.35,SE,132,3.9,8.5,19,0.00,,,0.00,WSDL version 426,2013-02-03 23:00:00,
2013-02-03 17:05:00,58.7,16.5,29.35,SSE,148,3.8,8.1,19,0.00,,,0.00,WSDL version 426,2013-02-03 23:05:00,
2013-02-03 17:10:00,58.2,16.1,29.35,SE,133,3.4,7.8,19,-99.99,,,-99.99,WSDL version 426,2013-02-03 23:10:00,
2013-02-03 17:15:00,57.6,17.3,29.35,ESE,121,3.4,5.8,22,-99.99,,,-99.99,WSDL version 426,2013-02-03 23:15:00,
2013-02-03 17:20:00,56.9,18.4,29.35,SE,135,3.6,5.4,22,-99.99,,,-99.99,WSDL version 426,2013-02-03 23:20:00,
2013-02-03 17:25:00,56.3,18.0,29.35,ESE,121,4.1,6.5,22,0.00,,,0.00,WSDL version 426,2013-02-03 23:25:00,
2013-02-03 17:30:00,55.9,19.6,29.32,SE,124,4.1,6.7,25,0.00,,,0.00,WSDL version 426,2013-02-03 23:30:00,
2013-02-03 17:35:00,55.3,20.1,29.32,ESE,121,4.3,6.7,25,0.00,,,0.00,WSDL version 426,2013-02-03 23:35:00,
2013-02-03 17:40:00,54.9,20.7,29.32,SE,128,4.6,8.5,26,0.00,,,0.00,WSDL version 426,2013-02-03 23:40:00,
2013-02-03 17:45:00,54.5,20.3,29.32,SE,138,4.1,8.5,26,0.00,,,0.00,WSDL version 426,2013-02-03 23:45:00,
2013-02-03 17:50:00,54.1,20.0,29.32,SE,129,5.1,6.5,26,0.00,,,0.00,WSDL version 426,2013-02-03 23:50:00,
2013-02-03 17:55:00,53.6,19.6,29.32,SE,125,3.7,6.5,26,0.00,,,0.00,WSDL version 426,2013-02-03 23:55:00,
2013-02-03 18:00:00,53.3,19.3,29.32,SE,127,3.5,5.8,26,0.00,,,0.00,WSDL version 426,2013-02-04 00:00:00,
2013-02-03 18:05:00,53.0,19.0,29.32,SE,125,2.9,5.6,26,0.00,,,0.00,WSDL version 426,2013-02-04 00:05:00,
2013-02-03 18:10:00,52.7,19.1,29.32,SE,132,4.1,5.6,27,0.00,,,0.00,WSDL version 426,2013-02-04 00:10:00,
2013-02-03 18:15:00,52.4,19.4,29.32,SE,140,3.4,5.6,27,0.00,,,0.00,WSDL version 426,2013-02-04 00:15:00,
2013-02-03 18:20:00,52.2,19.3,29.32,ESE,123,3.2,5.6,27,0.00,,,0.00,WSDL version 426,2013-02-04 00:20:00,
2013-02-03 18:25:00,51.9,19.0,29.32,SE,143,3.5,5.6,27,0.00,,,0.00,WSDL version 426,2013-02-04 00:25:00,
2013-02-03 18:30:00,51.8,18.9,29.32,SE,138,2.7,4.9,27,0.00,,,0.00,WSDL version 426,2013-02-04 00:30:00,
2013-02-03 18:35:00,51.6,18.7,29.32,SE,132,2.8,4.9,27,0.00,,,0.00,WSDL version 426,2013-02-04 00:35:00,
2013-02-03 18:40:00,51.4,18.5,29.32,SE,125,2.6,4.0,27,0.00,,,0.00,WSDL version 426,2013-02-04 00:40:00,
2013-02-03 18:45:00,51.0,18.2,29.32,SE,132,2.3,4.3,27,0.00,,,0.00,WSDL version 426,2013-02-04 00:45:00,
2013-02-03 18:50:00,50.8,18.0,29.32,SSE,153,1.6,4.3,27,0.00,,,0.00,WSDL version 426,2013-02-04 00:50:00,
2013-02-03 18:55:00,50.6,17.9,29.32,South,173,0.7,3.6,27,0.00,,,0.00,WSDL version 426,2013-02-04 00:55:00,
2013-02-03 19:00:00,50.5,17.8,29.32,SSE,158,0.4,3.1,27,0.00,,,0.00,WSDL version 426,2013-02-04 01:00:00,
2013-02-03 19:05:00,50.2,17.5,29.32,South,183,1.6,3.6,27,0.00,,,0.00,WSDL version 426,2013-02-04 01:05:00,
2013-02-03 19:10:00,50.2,18.3,29.32,SE,138,2.2,3.8,28,0.00,,,0.00,WSDL version 426,2013-02-04 01:10:00,
2013-02-03 19:15:00,50.1,18.2,29.29,SSE,149,1.2,3.8,28,0.00,,,0.00,WSDL version 426,2013-02-04 01:15:00,
2013-02-03 19:20:00,49.9,18.1,29.29,SE,146,2.3,4.0,28,0.00,,,0.00,WSDL version 426,2013-02-04 01:20:00,
2013-02-03 19:25:00,49.8,18.0,29.29,SE,130,0.6,4.0,28,0.00,,,0.00,WSDL version 426,2013-02-04 01:25:00,
2013-02-03 19:30:00,49.6,18.4,29.29,SSE,158,1.1,3.6,29,0.00,,,0.00,WSDL version 426,2013-02-04 01:30:00,
2013-02-03 19:35:00,49.6,18.7,29.29,South,188,1.5,4.0,29,0.00,,,0.00,WSDL version 426,2013-02-04 01:35:00,
2013-02-03 19:40:00,49.6,18.6,29.29,SSE,165,2.4,4.0,29,0.00,,,0.00,WSDL version 426,2013-02-04 01:40:00,
2013-02-03 19:45:00,49.5,18.9,29.29,SSE,161,1.9,3.8,30,0.00,,,0.00,WSDL version 426,2013-02-04 01:45:00,
2013-02-03 19:50:00,49.2,19.1,29.29,SW,215,1.4,3.8,30,0.00,,,0.00,WSDL version 426,2013-02-04 01:50:00,
2013-02-03 19:55:00,48.9,18.8,29.29,SW,217,1.2,3.4,30,0.00,,,0.00,WSDL version 426,2013-02-04 01:55:00,
2013-02-03 20:00:00,48.5,19.2,29.29,SSW,203,1.0,3.4,31,0.00,,,0.00,WSDL version 426,2013-02-04 02:00:00,
2013-02-03 20:05:00,48.2,19.0,29.29,South,188,0.4,3.4,31,0.00,,,0.00,WSDL version 426,2013-02-04 02:05:00,
2013-02-03 20:10:00,48.1,18.9,29.29,South,183,0.6,2.7,31,0.00,,,0.00,WSDL version 426,2013-02-04 02:10:00,
2013-02-03 20:15:00,48.0,19.4,29.29,SE,128,0.5,2.7,32,0.00,,,0.00,WSDL version 426,2013-02-04 02:15:00,
2013-02-03 20:20:00,48.1,19.6,29.29,SSE,166,2.1,3.4,32,0.00,,,0.00,WSDL version 426,2013-02-04 02:20:00,
2013-02-03 20:25:00,48.2,19.7,29.29,SSE,150,2.5,3.6,32,0.00,,,0.00,WSDL version 426,2013-02-04 02:25:00,
2013-02-03 20:30:00,48.0,20.3,29.29,SSE,160,2.1,4.9,33,0.00,,,0.00,WSDL version 426,2013-02-04 02:30:00,
2013-02-03 20:35:00,47.9,20.2,29.29,SE,138,2.5,6.0,33,0.00,,,0.00,WSDL version 426,2013-02-04 02:35:00,
2013-02-03 20:40:00,48.0,20.9,29.29,SSE,163,1.7,6.0,34,0.00,,,0.00,WSDL version 426,2013-02-04 02:40:00,
2013-02-03 20:45:00,48.1,21.0,29.26,SSE,160,2.5,4.9,34,0.00,,,0.00,WSDL version 426,2013-02-04 02:45:00,
2013-02-03 20:50:00,48.3,21.2,29.26,SE,145,3.9,6.3,34,0.00,,,0.00,WSDL version 426,2013-02-04 02:50:00,
2013-02-03 20:55:00,48.4,21.8,29.26,SSE,152,2.0,6.3,35,0.00,,,0.00,WSDL version 426,2013-02-04 02:55:00,
2013-02-03 21:00:00,48.6,21.9,29.26,SE,138,3.8,7.6,35,0.00,,,0.00,WSDL version 426,2013-02-04 03:00:00,
2013-02-03 21:05:00,48.6,22.2,29.26,SE,124,3.8,8.1,35,0.00,,,0.00,WSDL version 426,2013-02-04 03:05:00,
2013-02-03 21:10:00,48.7,22.3,29.26,SE,138,3.5,8.1,35,0.00,,,0.00,WSDL version 426,2013-02-04 03:10:00,
2013-02-03 21:15:00,48.8,22.4,29.26,SE,128,4.6,7.8,35,0.00,,,0.00,WSDL version 426,2013-02-04 03:15:00,
2013-02-03 21:20:00,48.9,22.5,29.26,SE,135,4.4,8.5,35,0.00,,,0.00,WSDL version 426,2013-02-04 03:20:00,
2013-02-03 21:25:00,48.9,22.5,29.26,SE,130,4.0,8.5,35,0.00,,,0.00,WSDL version 426,2013-02-04 03:25:00,
2013-02-03 21:30:00,48.9,22.5,29.26,SE,127,4.6,8.7,35,0.00,,,0.00,WSDL version 426,2013-02-04 03:30:00,
2013-02-03 21:35:00,48.9,22.5,29.26,SE,129,4.6,8.7,35,0.00,,,0.00,WSDL version 426,2013-02-04 03:35:00,
2013-02-03 21:40:00,49.0,22.6,29.26,SE,129,3.7,7.4,35,0.00,,,0.00,WSDL version 426,2013-02-04 03:40:00,
2013-02-03 21:45:00,49.0,22.5,29.26,SE,130,3.2,6.3,35,0.00,,,0.00,WSDL version 426,2013-02-04 03:45:00,
2013-02-03 21:50:00,49.1,22.6,29.26,SSE,148,3.8,6.3,35,0.00,,,0.00,WSDL version 426,2013-02-04 03:50:00,
2013-02-03 21:55:00,49.1,22.6,29.26,SE,143,3.7,7.4,35,0.00,,,0.00,WSDL version 426,2013-02-04 03:55:00,
2013-02-03 22:00:00,48.9,23.0,29.23,SSE,153,3.4,7.4,36,0.00,,,0.00,WSDL version 426,2013-02-04 04:00:00,
2013-02-03 22:05:00,48.9,23.1,29.23,SE,138,3.1,6.3,36,0.00,,,0.00,WSDL version 426,2013-02-04 04:05:00,
2013-02-03 22:10:00,48.8,23.0,29.23,SE,146,3.4,6.3,36,0.00,,,0.00,WSDL version 426,2013-02-04 04:10:00,
2013-02-03 22:15:00,48.7,23.0,29.23,SSE,149,3.5,6.5,36,0.00,,,0.00,WSDL version 426,2013-02-04 04:15:00,
2013-02-03 22:20:00,48.7,23.0,29.23,SE,140,2.4,6.5,36,0.00,,,0.00,WSDL version 426,2013-02-04 04:20:00,
2013-02-03 22:25:00,48.7,23.0,29.23,SSE,150,3.4,6.5,36,0.00,,,0.00,WSDL version 426,2013-02-04 04:25:00,
2013-02-03 22:30:00,48.7,23.0,29.23,SE,146,3.1,6.3,36,0.00,,,0.00,WSDL version 426,2013-02-04 04:30:00,
2013-02-03 22:35:00,48.7,23.5,29.23,SSE,151,4.4,6.5,37,0.00,,,0.00,WSDL version 426,2013-02-04 04:35:00,
2013-02-03 22:40:00,48.7,23.6,29.23,SSE,152,4.0,6.5,37,0.00,,,0.00,WSDL version 426,2013-02-04 04:40:00,
2013-02-03 22:45:00,48.7,23.6,29.23,SSE,150,3.5,5.6,37,0.00,,,0.00,WSDL version 426,2013-02-04 04:45:00,
2013-02-03 22:50:00,48.7,23.6,29.23,SSE,154,3.5,6.3,37,0.00,,,0.00,WSDL version 426,2013-02-04 04:50:00,
2013-02-03 22:55:00,48.7,23.6,29.23,SE,143,3.2,6.3,37,0.00,,,0.00,WSDL version 426,2013-02-04 04:55:00,
2013-02-03 23:01:00,48.9,23.8,29.21,SSE,152,3.5,7.6,37,0.00,,,0.00,WSDL version 426,2013-02-04 05:01:00,
2013-02-03 23:02:00,48.9,23.8,29.21,SSE,150,3.6,7.6,37,0.00,,,0.00,WSDL version 426,2013-02-04 05:02:00,
2013-02-03 23:03:00,48.9,23.8,29.21,SSE,155,3.6,7.6,37,0.00,,,0.00,WSDL version 426,2013-02-04 05:03:00,
2013-02-03 23:12:00,49.4,24.2,29.21,SE,138,4.5,7.2,37,0.00,,,0.00,WSDL version 426,2013-02-04 05:12:00,
2013-02-03 23:18:00,49.6,24.4,29.21,SSE,149,4.4,6.5,37,0.00,,,0.00,WSDL version 426,2013-02-04 05:18:00,
2013-02-03 23:23:00,49.9,24.1,29.21,SSE,164,4.5,8.5,36,0.00,,,0.00,WSDL version 426,2013-02-04 05:23:00,
2013-02-03 23:28:00,50.0,24.1,29.21,South,174,3.8,8.5,36,0.00,,,0.00,WSDL version 426,2013-02-04 05:28:00,
2013-02-03 23:33:00,49.9,24.0,29.21,SSE,155,3.1,6.5,36,0.00,,,0.00,WSDL version 426,2013-02-04 05:33:00,
2013-02-03 23:38:00,49.8,23.9,29.21,SE,146,3.0,6.0,36,0.00,,,0.00,WSDL version 426,2013-02-04 05:38:00,
2013-02-03 23:43:00,49.6,23.8,29.21,SSE,158,3.2,5.8,36,0.00,,,0.00,WSDL version 426,2013-02-04 05:43:00,
2013-02-03 23:48:00,49.6,23.8,29.21,SSE,158,3.2,6.0,36,0.00,,,0.00,WSDL version 426,2013-02-04 05:48:00,
2013-02-03 23:53:00,49.6,24.4,29.21,SSE,153,3.8,6.0,37,0.00,,,0.00,WSDL version 426,2013-02-04 05:53:00,
2013-02-03 23:58:00,49.7,24.5,29.21,SSE,151,4.3,8.5,37,0.00,,,0.00,WSDL version 426,2013-02-04 05:58:00,